[[{"header":{"parameterUnit":"m.s-1","parameterCategory":1,"la1":30.2991,"la2":30.254,"lo1":-89.0895,"lo2":-89.0444,"dy":0.0017,"dx":0.0017,"nx":28,"ny":28,"refTime":"2024-02-09T09:00:00:Z","depth":0,"parameterNumber":2,"parameterNumberName":"U-component_of_WINDS"},"data":[0,0,0,0,0,0,0,0,0,0,0,0,0,0,0,0,0,0,0,0,0,0,0,0,0,0,0,0,0,0,0,0,0,0,0,0,0,0,0,0,0,0,0,0,0,0,0,0,0,0,0,0,0,0,0,0,0,0,-0.9278,-0.9277,0,-0.9161,-0.916,-0.9159,-0.9099,-0.9099,-0.9099,-0.9099,-0.8972,-0.8969,-0.8965,0,0,0,0,0,0,0,0,0,0,0,0,0,-0.9441,-0.9438,-0.9278,-0.9277,-0.9275,-0.9162,-0.916,-0.9158,-0.9099,-0.9099,-0.9099,-0.9099,-0.8973,-0.8969,-0.8965,0,0,0,0,0,0,0,0,0,0,0,0,0,-0.9352,-0.9437,-0.9278,-0.9232,-0.9227,-0.9162,-0.916,-0.9158,-0.9099,-0.9099,-0.9099,-0.9099,-0.8974,-0.8969,-0.8964,-0.8935,0,0,-0.8949,-0.8947,0,0,0,0,0,0,0,0,-0.9357,-0.9346,-0.924,-0.9235,-0.9229,-0.9145,-0.9171,-0.9083,-0.9099,-0.9147,-0.9099,-0.9099,-0.9029,-0.9019,-0.8997,-0.8929,-0.8923,-0.8949,-0.8946,-0.8944,-0.8942,0,0,0,0,0,0,0,-0.9363,-0.935,-0.9232,-0.9239,-0.9232,-0.9214,-0.9201,-0.9154,-0.9089,-0.9143,-0.9138,-0.9126,-0.9026,-0.9002,-0.8994,-0.8921,-0.8949,-0.8944,-0.8941,-0.8939,-0.8819,-0.8818,0,0,0,0,0,0,-0.9378,-0.9356,-0.9235,-0.9228,-0.9294,-0.9211,-0.9197,-0.9172,-0.909,-0.9078,-0.9126,-0.9123,-0.9011,-0.9,-0.8989,-0.8947,-0.8944,-0.8939,-0.8936,-0.8819,-0.8819,-0.8818,0,0,0,0,0,0,-0.9382,-0.9368,-0.924,-0.9291,-0.9273,-0.9209,-0.9181,-0.9169,-0.9146,-0.9077,-0.9065,-0.9114,-0.9011,-0.8996,-0.8948,-0.8942,-0.8937,-0.8932,-0.8819,-0.8819,-0.8818,-0.8864,0,0,0,0,0,0,-0.9387,-0.937,-0.936,-0.9291,-0.9271,-0.9204,-0.918,-0.9167,-0.9138,-0.9134,-0.9063,-0.9051,-0.9009,-0.8956,-0.8944,-0.8935,-0.8928,-0.8819,-0.8819,-0.8819,-0.8863,-0.8865,-0.8867,0,0,0,0,0,-0.9393,-0.9376,-0.936,-0.9345,-0.9258,-0.9204,-0.9192,-0.9146,-0.9138,-0.9126,-0.9081,-0.9053,-0.8945,-0.8952,-0.8937,-0.8927,-0.882,-0.8819,-0.8819,-0.8862,-0.8865,-0.8867,0,0,0,0,0,0,-0.9444,-0.9366,-0.9347,-0.9309,-0.9264,-0.9194,-0.9178,-0.9151,-0.9106,-0.9103,-0.9046,-0.9031,-0.8987,-0.8952,-0.8961,-0.8892,-0.8879,-0.8876,-0.8917,-0.8919,-0.8921,-0.893,-0.8924,0,0,0,0,0,-0.9451,-0.9416,-0.935,-0.9322,-0.93,-0.9243,-0.9218,-0.9187,-0.9137,-0.9117,-0.9068,-0.9019,-0.8973,-0.8944,-0.8898,-0.8857,-0.8839,-0.8842,-0.8845,-0.8847,-0.8844,-0.8817,-0.8817,-0.8817,-0.8817,-0.8817,0,0,-0.9465,-0.9418,-0.9399,-0.9331,-0.9292,-0.9255,-0.9227,-0.9189,-0.916,-0.911,-0.9062,-0.9025,-0.8965,-0.892,-0.8897,-0.8889,-0.884,-0.8846,-0.8849,-0.8845,-0.8816,-0.8816,-0.8816,-0.8817,-0.8817,-0.8817,0,0,-0.947,-0.9433,-0.9405,-0.9367,-0.9309,-0.9271,-0.9264,-0.9198,-0.9172,-0.9123,-0.9084,-0.9047,-0.897,-0.8929,-0.8898,-0.8885,-0.8857,-0.8872,-0.8884,-0.8858,-0.8858,-0.8857,-0.8851,-0.8849,-0.887,-0.887,-0.887,0,-0.9494,-0.9439,-0.9393,-0.9357,-0.9326,-0.9281,-0.925,-0.9215,-0.9144,-0.9123,-0.9115,-0.9016,-0.8973,-0.8916,-0.8913,-0.889,-0.8878,-0.888,-0.8862,-0.8861,-0.886,-0.8853,-0.8851,-0.8872,-0.8872,-0.8871,-0.8871,0,-0.9469,-0.9432,-0.9415,-0.935,-0.9318,-0.9285,-0.9231,-0.9203,-0.9174,-0.9135,-0.9084,-0.9031,-0.8973,-0.8957,-0.8927,-0.8895,-0.8891,-0.8873,-0.8859,-0.8863,-0.8855,-0.8852,-0.8875,-0.8874,-0.8873,-0.8873,0,0,-0.9505,-0.9415,-0.9409,-0.9378,-0.931,-0.9279,-0.9241,-0.9187,-0.9163,-0.9115,-0.908,-0.9016,-0.8998,-0.8963,-0.8928,-0.8905,-0.8896,-0.889,-0.8887,-0.8891,-0.8853,-0.8867,-0.8865,-0.8877,-0.8876,-0.8876,-0.8858,0,-0.95,-0.9435,-0.9391,-0.9342,-0.9304,-0.926,-0.9227,-0.918,-0.9143,-0.9103,-0.906,-0.9014,-0.8996,-0.8974,-0.895,-0.8903,-0.8887,-0.8903,-0.8841,-0.884,-0.8857,-0.8861,-0.8875,-0.8861,-0.8855,-0.8854,-0.8854,0,-0.9486,-0.9441,-0.9389,-0.9323,-0.9306,-0.9278,-0.9222,-0.9186,-0.913,-0.9104,-0.9064,-0.9029,-0.8984,-0.8974,-0.891,-0.8922,-0.8894,-0.8866,-0.8865,-0.8856,-0.8847,-0.8851,-0.8856,-0.8853,-0.8849,-0.8849,-0.885,0,-0.9515,-0.9441,-0.94,-0.9375,-0.9298,-0.9279,-0.9245,-0.919,-0.9159,-0.9109,-0.9088,-0.9033,-0.9003,-0.896,-0.8909,-0.8907,-0.8849,-0.8835,-0.8823,-0.8825,-0.8813,-0.8814,-0.8811,-0.8797,-0.8797,-0.8797,-0.8797,0,-0.9513,-0.9482,-0.9412,-0.9386,-0.9349,-0.9298,-0.9261,-0.9224,-0.9174,-0.9138,-0.9095,-0.9061,-0.8997,-0.8954,-0.8914,-0.8865,-0.8852,-0.8828,-0.8817,-0.8831,-0.8834,-0.8811,-0.881,-0.8796,-0.8796,-0.8796,-0.8797,0,-0.9539,-0.9491,-0.9443,-0.9374,-0.9356,-0.9331,-0.9271,-0.9242,-0.9202,-0.9156,-0.9142,-0.9078,-0.9026,-0.8971,-0.8899,-0.8872,-0.8824,-0.881,-0.8844,-0.8837,-0.8828,-0.8829,-0.8809,-0.8803,-0.8795,-0.8795,-0.8795,0,-0.9541,-0.9517,-0.9446,-0.9419,-0.9388,-0.9346,-0.9314,-0.9261,-0.9229,-0.9163,-0.9142,-0.9086,-0.9039,-0.8956,-0.8901,-0.8845,-0.8828,-0.8825,-0.8819,-0.8833,-0.8826,-0.8828,-0.8824,-0.8827,-0.8828,-0.8828,-0.8828,0,-0.9549,-0.9526,-0.9484,-0.9432,-0.9396,-0.9352,-0.9306,-0.9287,-0.9224,-0.919,-0.9137,-0.91,-0.9027,-0.8971,-0.8908,-0.8869,-0.8837,-0.8831,-0.8824,-0.8838,-0.8858,-0.8845,-0.8848,-0.8831,-0.8831,-0.8831,-0.883,-0.883,-0.9562,-0.9537,-0.9483,-0.9436,-0.9396,-0.9354,-0.9324,-0.928,-0.9236,-0.9174,-0.9144,-0.909,-0.9031,-0.8944,-0.8906,-0.886,-0.8851,-0.8843,-0.8841,-0.8839,-0.8842,-0.8866,-0.8849,-0.8849,-0.8848,-0.8848,-0.8848,0,-0.9566,-0.9529,-0.9486,-0.9424,-0.9387,-0.9362,-0.931,-0.9279,-0.9233,-0.9182,-0.9137,-0.9074,-0.9019,-0.8959,-0.89,-0.8875,-0.8858,-0.8861,-0.8861,-0.8852,-0.8854,-0.8865,-0.8875,-0.8875,-0.8875,-0.8875,-0.8875,-0.8875,-0.9563,-0.952,-0.949,-0.9425,-0.9387,-0.9336,-0.9307,-0.9267,-0.9226,-0.9159,-0.9114,-0.9076,-0.902,-0.8957,-0.8904,-0.8887,-0.8866,-0.8873,-0.8852,-0.8855,-0.8853,-0.8851,-0.886,-0.8869,-0.8869,-0.8854,-0.8853,-0.8853]},{"header":{"parameterUnit":"m.s-1","parameterCategory":1,"la1":30.2991,"la2":30.254,"lo1":-89.0895,"lo2":-89.0444,"dy":0.0017,"dx":0.0017,"nx":28,"ny":28,"refTime":"2024-02-09T09:00:00:Z","depth":0,"parameterNumber":3,"parameterNumberName":"V-component_of_WINDS"},"data":[0,0,0,0,0,0,0,0,0,0,0,0,0,0,0,0,0,0,0,0,0,0,0,0,0,0,0,0,0,0,0,0,0,0,0,0,0,0,0,0,0,0,0,0,0,0,0,0,0,0,0,0,0,0,0,0,0,0,1.075,1.0752,0,1.0946,1.0949,1.0951,1.1036,1.1036,1.1036,1.1035,1.1244,1.1249,1.1255,0,0,0,0,0,0,0,0,0,0,0,0,0,1.0457,1.0462,1.075,1.0752,1.0755,1.0946,1.0949,1.0952,1.1036,1.1036,1.1036,1.1035,1.1242,1.1249,1.1256,0,0,0,0,0,0,0,0,0,0,0,0,0,1.0612,1.0464,1.0749,1.082,1.0828,1.0946,1.0949,1.0952,1.1037,1.1036,1.1036,1.1035,1.124,1.1248,1.1257,1.1321,0,0,1.1283,1.1287,0,0,0,0,0,0,0,0,1.0603,1.0623,1.0807,1.0815,1.0825,1.0966,1.0922,1.1076,1.1037,1.0958,1.1035,1.1035,1.1152,1.1168,1.1206,1.133,1.1339,1.1284,1.129,1.1293,1.1296,0,0,0,0,0,0,0,1.0592,1.0615,1.0828,1.081,1.0821,1.0845,1.0866,1.0952,1.1056,1.0965,1.0971,1.0993,1.1157,1.1198,1.1212,1.1342,1.1284,1.1292,1.1297,1.1301,1.1533,1.1534,0,0,0,0,0,0,1.0569,1.0605,1.0822,1.0834,1.071,1.0851,1.0875,1.0922,1.1055,1.1075,1.0993,1.0996,1.1183,1.1202,1.122,1.1306,1.1293,1.1301,1.1307,1.1532,1.1533,1.1534,0,0,0,0,0,0,1.0562,1.0587,1.0814,1.0722,1.0752,1.0856,1.0908,1.0926,1.0966,1.1076,1.1096,1.1015,1.1183,1.1207,1.1295,1.1314,1.1305,1.1313,1.1531,1.1532,1.1534,1.1476,0,0,0,0,0,0,1.0554,1.0584,1.0607,1.0721,1.0757,1.0883,1.0909,1.093,1.098,1.0986,1.1102,1.1121,1.1185,1.1282,1.1304,1.1326,1.132,1.153,1.1532,1.1533,1.1477,1.1475,1.1474,0,0,0,0,0,1.0543,1.0584,1.0608,1.0634,1.0787,1.0884,1.0905,1.0975,1.0981,1.1007,1.1078,1.1117,1.1308,1.129,1.1316,1.1341,1.1529,1.1531,1.1533,1.1478,1.1476,1.1474,0,0,0,0,0,0,1.0472,1.06,1.0628,1.0707,1.0784,1.0898,1.0932,1.0971,1.1049,1.1051,1.1138,1.1164,1.1245,1.1302,1.1279,1.1412,1.1422,1.1429,1.1371,1.137,1.1369,1.1354,1.1328,0,0,0,0,0,1.0465,1.053,1.064,1.0699,1.0736,1.0827,1.0872,1.092,1.1004,1.1037,1.1115,1.1197,1.1276,1.1326,1.1405,1.1486,1.1514,1.1516,1.1514,1.1513,1.1518,1.1569,1.1572,1.1541,1.1541,1.1541,0,0,1.0452,1.0531,1.0567,1.0687,1.0752,1.0821,1.0854,1.0925,1.0978,1.1049,1.1137,1.1197,1.1295,1.138,1.1421,1.143,1.1533,1.1515,1.1513,1.152,1.1571,1.1574,1.1577,1.1542,1.1542,1.1542,0,0,1.0464,1.0529,1.0586,1.0651,1.0748,1.0809,1.0823,1.0932,1.0974,1.1063,1.1119,1.1185,1.1318,1.1386,1.1438,1.1479,1.1519,1.1502,1.1495,1.1544,1.1546,1.1549,1.1566,1.1571,1.1507,1.1507,1.1507,0,1.0437,1.054,1.0612,1.068,1.0733,1.0799,1.086,1.092,1.1039,1.1076,1.1083,1.1253,1.1323,1.1427,1.1437,1.1476,1.1498,1.149,1.1539,1.1543,1.1547,1.1564,1.157,1.1505,1.1505,1.1505,1.1505,0,1.0503,1.0573,1.0609,1.072,1.0777,1.0841,1.0927,1.0976,1.102,1.1081,1.1173,1.126,1.1358,1.1386,1.143,1.1498,1.15,1.1522,1.1535,1.1546,1.1564,1.1571,1.1501,1.1502,1.1503,1.1503,0,0,1.0474,1.0626,1.0638,1.0691,1.0804,1.0862,1.0931,1.1026,1.1068,1.1149,1.1211,1.1323,1.1345,1.1404,1.1456,1.1498,1.1529,1.1516,1.152,1.1517,1.1612,1.1596,1.1602,1.1555,1.1557,1.1558,1.1605,0,1.0503,1.0627,1.0695,1.0792,1.086,1.0925,1.0986,1.1064,1.1124,1.1193,1.1261,1.1339,1.1361,1.1397,1.1442,1.1515,1.1549,1.1513,1.1618,1.162,1.1592,1.1611,1.1594,1.1634,1.1612,1.1613,1.1614,0,1.0553,1.0631,1.0734,1.0842,1.0874,1.0926,1.102,1.1084,1.1176,1.1217,1.1284,1.1336,1.1415,1.1421,1.1533,1.1507,1.1554,1.1597,1.1601,1.1614,1.1619,1.1628,1.1648,1.1654,1.1626,1.1625,1.1624,0,1.0525,1.0656,1.0735,1.0778,1.0906,1.0942,1.0997,1.1088,1.1142,1.1225,1.1261,1.1353,1.1404,1.1475,1.1552,1.1549,1.1658,1.1669,1.1697,1.1695,1.1718,1.1716,1.1748,1.1745,1.1745,1.1745,1.1745,0,1.0551,1.0612,1.0724,1.0773,1.0845,1.0924,1.0994,1.1055,1.1136,1.1201,1.1263,1.1323,1.142,1.1493,1.1554,1.164,1.1662,1.17,1.1716,1.1695,1.169,1.1728,1.1728,1.1747,1.1746,1.1746,1.1746,0,1.0531,1.0609,1.07,1.0813,1.0844,1.0892,1.0991,1.1043,1.1106,1.1187,1.1211,1.1311,1.1401,1.1485,1.1604,1.1646,1.1733,1.1752,1.1701,1.171,1.1734,1.1731,1.1793,1.1806,1.1791,1.1792,1.1792,0,1.0543,1.0591,1.071,1.0757,1.0811,1.0885,1.094,1.1022,1.1077,1.1186,1.1226,1.132,1.1399,1.154,1.1625,1.1718,1.1742,1.1757,1.1756,1.1735,1.1745,1.1742,1.1749,1.1756,1.1756,1.1755,1.1755,0,1.0557,1.0593,1.0668,1.0758,1.0822,1.0897,1.0974,1.101,1.1107,1.1167,1.1258,1.1319,1.1442,1.1535,1.1638,1.17,1.1745,1.1755,1.1767,1.1747,1.1716,1.1736,1.1699,1.1753,1.1753,1.1754,1.1754,1.1754,1.0555,1.0602,1.0694,1.0777,1.0843,1.0915,1.097,1.104,1.1117,1.1221,1.1266,1.1359,1.1454,1.1597,1.1658,1.1734,1.1744,1.176,1.1765,1.1768,1.1765,1.1702,1.1753,1.1753,1.1754,1.1754,1.1754,0,1.0574,1.0636,1.0712,1.0818,1.0884,1.0919,1.1007,1.1061,1.1142,1.1225,1.1302,1.1409,1.1501,1.1594,1.1692,1.1736,1.1759,1.1759,1.1758,1.1772,1.175,1.1731,1.1738,1.1738,1.1738,1.1738,1.1738,1.1738,1.0591,1.0674,1.0722,1.0839,1.0903,1.0993,1.1041,1.1109,1.1176,1.1292,1.1368,1.1427,1.1516,1.1621,1.1709,1.1734,1.1769,1.1763,1.1794,1.1772,1.1773,1.1773,1.1756,1.1769,1.1769,1.181,1.1811,1.1811]}]]